Regional Weather Roundup
Issued by NWS

Home | Current Version | Previous Version | Graphics & Text | Print | Product List | Glossary On
Versions: 1 2 3 4 5 6 7 8 9 10 11 12 13 14 15 16 17 18 19 20 21 22 23 24 25 26 27 28 29 30 31 32 33 34 35 36 37 38 39 40 41 42 43 44 45 46 47 48 49 50
000
ASUS43 KDMX 032106
RWRIA

WEATHER ROUNDUP FOR IOWA
NATIONAL WEATHER SERVICE DES MOINES IA
300 PM CST SAT DEC 03 2016

NOTE: "FAIR" INDICATES FEW OR NO CLOUDS BELOW 12,000 FEET WITH NO
SIGNIFICANT WEATHER AND/OR OBSTRUCTIONS TO VISIBILITY.

* - THESE STATIONS ARE NOT NWS STATIONS...THUS NOT UNDER NWS
QUALITY CONTROL.  THEY ALSO DO NOT REPORT WEATHER SUCH
AS PRECIPITATION OR FOG.

IAZ001>003-012>014-020>022-031>034-043>046-032200-
   NORTHWEST IOWA

CITY           SKY/WX    TMP DP  RH WIND       PRES   REMARKS
CARROLL *      MIX PCPN  36  36 100 S8        30.21F WCI  29
CHEROKEE *     LGT SNOW  33  33 100 S6        30.19F WCI  28
DENISON *      LGT SNOW  34  34 100 S3        30.19S
LE MARS *      CLOUDY    34  32  93 S15       30.17F FOG     WCI  24
ORANGE CITY *  LGT SNOW  32  32 100 S9        30.16F WCI  24
SHELDON *      MIX PCPN  34  34 100 S14G26    30.15F WCI  24
SIOUX CITY     LGT SNOW  35  33  92 SE9       30.18F VSB 1   WCI  28
SPENCER        MIX PCPN  36  33  89 S20       30.18F WCI  25
STORM LAKE *   SNOW      32  32 100 S10       30.20S VSB 1/2 WCI  24
$$

IAZ055>058-069>071-079>083-090>094-032200-
   SOUTHWEST IOWA

CITY           SKY/WX    TMP DP  RH WIND       PRES   REMARKS
ATLANTIC *     LGT SNOW  34  32  93 S6        30.22S VSB 3/4 WCI  29
AUDUBON *      LGT SNOW  36  30  80 S3        30.23R
CLARINDA *       N/A     39  34  81 E5        30.22F
COUNCIL BLFS * SNOW      32  32 100 SE6       30.20S VSB 1/2 WCI  26
CRESTON *      CLOUDY    39  32  75 SE8       30.22F WCI  34
HARLAN  *      LGT SNOW  32  32 100 S5        30.25S VSB 3/4 WCI  27
LAMONI         CLOUDY    42  31  64 SE7       30.22S
RED OAK *      LGT SNOW  34  32  93 CALM      30.22S VSB 1
SHENANDOAH *   CLOUDY    36  34  93 NE9       30.21F WCI  29
$$

IAZ047>049-059>061-072>074-084-032200-
   CENTRAL IOWA

CITY           SKY/WX    TMP DP  RH WIND       PRES   REMARKS
AMES           CLOUDY    40  32  73 SE7       30.23F
ANKENY *       PTSUNNY   39  34  81 S8        30.25F WCI  34
BOONE *        PTSUNNY   39  30  70 S7        30.22F WCI  34
CHARITON *       N/A     41  32  70 SE8       30.23S
DES MOINES     CLOUDY    41  30  65 SE7       30.24F
GRINNELL*      PTSUNNY   38  31  74 S7        30.26F WCI  33
KNOXVILLE *    CLOUDY    41  30  65 SE8       30.23F
MARSHALLTOWN   CLOUDY    39  31  72 S9        30.24F WCI  33
NEWTON *       CLOUDY    39  30  70 SE8       30.24S WCI  34
PELLA *        CLOUDY    40  31  71 SE6       30.27S
PERRY *        CLOUDY    40  33  78 S8        30.22F WCI  34
$$

IAZ004>006-015-016-023>025-035-036-032200-
   NORTH CENTRAL IOWA

CITY           SKY/WX    TMP DP  RH WIND       PRES   REMARKS
ALGONA *       CLOUDY    37  32  81 S15       30.21S WCI  28
CLARION *      CLOUDY    37  32  81 S10       30.22F WCI  30
ESTHERVILLE    CLOUDY    36  31  82 S13       30.18S WCI  27
FORT DODGE *   CLOUDY    36  28  75 S10       30.23S WCI  28
MASON CITY     CLOUDY    36  28  73 S5        30.23F WCI  32
FOREST CITY *  CLOUDY    36  30  80 S5        30.21S WCI  32
WEBSTER CITY * CLOUDY    39  34  81 S9        30.21F WCI  33
IOWA FALLS *   CLOUDY    39  31  72 S7        30.25S WCI  34
$$

IAZ007>011-017>019-026>030-037>042-050>054-066-032200-
   NORTHEAST IOWA

CITY           SKY/WX    TMP DP  RH WIND       PRES   REMARKS
CEDAR RAPIDS   CLOUDY    38  30  73 S7        30.27F WCI  33
CHARLES CITY * CLOUDY    36  27  69 SW6       30.24F WCI  31
CLINTON *      CLOUDY    38  27  64 SW7       30.31S WCI  33
DECORAH *      CLOUDY    34  23  64 SW6       30.25R WCI  29
DUBUQUE        CLOUDY    34  26  72 W5        30.28F WCI  30
MONTICELLO *   CLOUDY    39  27  60 MISG      30.28S
OELWEIN *      PTSUNNY   37  27  65 S5        30.26F WCI  34
WATERLOO       PTSUNNY   38  26  62 S5        30.25F WCI  34
$$

IAZ064-065-067-068-078-032200-
   EAST CENTRAL IOWA

CITY           SKY/WX    TMP DP  RH WIND       PRES   REMARKS
DAVENPORT      CLOUDY    38  26  62 S5        30.31S WCI  34
IOWA CITY      CLOUDY    39  28  64 S7        30.31F WCI  34
MUSCATINE *    CLOUDY    39  27  60 CALM      30.32S
QUAD CITIES    CLOUDY    39  25  57 S5        30.31S
$$

IAZ062-063-075>077-085>089-095>099-032200-
   SOUTHEAST IOWA

CITY           SKY/WX    TMP DP  RH WIND       PRES   REMARKS
BURLINGTON     MOSUNNY   39  30  70 E6        30.30S WCI  35
FAIRFIELD *    CLOUDY    39  30  70 E7        30.27F WCI  34
FORT MADISON * PTSUNNY   41  30  65 SE5       30.30S
KEOKUK *       CLOUDY    41  32  70 E7        30.28F
OSKALOOSA *      N/A     39  30  70 SE9       30.27F WCI  33
CENTERVILLE *    N/A     41  32  70 CALM      30.24F
OTTUMWA        CLOUDY    41  29  62 SE9       30.26S
WASHINGTON *   CLOUDY    39  30  70 SE7       30.30F WCI  34
$$

ABBREVIATIONS USED IN REMARKS
   TC - TEMPERATURES IN CELSIUS
  WCI - WIND CHILL INDEX
   HX - HEAT INDEX
  VSB - VISIBILITY
$$





USA.gov is the U.S. government's official web portal to all federal, state and local government web resources and services.